Location: Mahannah Oil Field
(37.4664°N, 96.6003°W)
Time: 02:11:17
(UTC+00:00)

deb Explorer IX - Pass Details

Date: 28 January 2021
Orbit: 537 x 1102 km, 38.8° (Epoch: 25 February)

Event Time Altitude Azimuth Distance (km) Brightness Sun altitude
Rises 23:14:08 0° 258° (WSW) 3,873 ? 5.0°
Reaches altitude 10° 23:16:58 10° 258° (WSW) 2,878 ? 4.5°
Maximum altitude 23:24:03 88° 349° (N) 982 ? 3.3°
Drops below altitude 10° 23:30:14 10° 79° (E) 2,535 ? 2.1°
Sets 23:32:37 0° 80° (E) 3,388 ? 1.7°
